This is the latest recevied weather packets stored in our database for station/object KC5DAQ-28. If no packets are shown the sender has not sent any weather packets the latest 10 day(s).
| Time | Temp. | Humidity | Pressure | Rain* | Wind** | Luminosity | Snow |
|---|---|---|---|---|---|---|---|
| 1787861162 | 36.67° C | 48% | 1007.2 hPa | 0 mm | - | 923 W/m² | - |
| 1787861104 | 36.67° C | 48% | 1007.2 hPa | 0 mm | - | 930 W/m² | - |
| 1787861044 | 36.67° C | 49% | 1007.2 hPa | 0 mm | - | 934 W/m² | - |
| 1787860983 | 36.67° C | 49% | 1007.3 hPa | 0 mm | - | 932 W/m² | - |
| 1787860923 | 36.67° C | 48% | 1007.3 hPa | 0 mm | - | 935 W/m² | - |
| 1787860864 | 36.67° C | 49% | 1007.2 hPa | 0 mm | - | 935 W/m² | - |
| 1787860804 | 37.22° C | 49% | 1007.2 hPa | 0 mm | - | 935 W/m² | - |
| 1787860742 | 36.67° C | 49% | 1007.4 hPa | 0 mm | - | 946 W/m² | - |
| 1787860684 | 36.67° C | 49% | 1007.4 hPa | 0 mm | - | 946 W/m² | - |
| 1787860623 | 36.67° C | 49% | 1007.4 hPa | 0 mm | - | 949 W/m² | - |
| 1787860562 | 36.67° C | 49% | 1007.5 hPa | 0 mm | - | 951 W/m² | - |
| 1787860506 | 36.67° C | 49% | 1007.6 hPa | 0 mm | - | 955 W/m² | - |
| 1787860444 | 37.22° C | 52% | 1007.6 hPa | 0 mm | - | 955 W/m² | - |
| 1787860384 | 37.22° C | 52% | 1007.6 hPa | 0 mm | - | 957 W/m² | - |
| 1787860323 | 36.67° C | 52% | 1007.6 hPa | 0 mm | - | 957 W/m² | - |
| 1787860263 | 36.67° C | 51% | 1007.7 hPa | 0 mm | - | 958 W/m² | - |
| 1787860205 | 36.67° C | 51% | 1007.4 hPa | 0 mm | - | 960 W/m² | - |
| 1787860144 | 36.11° C | 51% | 1007.5 hPa | 0 mm | - | 960 W/m² | - |
| 1787860083 | 36.11° C | 50% | 1007.5 hPa | 0 mm | - | 958 W/m² | - |
| 1787860025 | 36.67° C | 50% | 1007.5 hPa | 0 mm | - | 958 W/m² | - |
| 1787859963 | 36.67° C | 50% | 1007.6 hPa | 0 mm | - | 958 W/m² | - |
| 1787859903 | 36.67° C | 50% | 1007.5 hPa | 0 mm | - | 960 W/m² | - |
| 1787859842 | 36.67° C | 51% | 1007.6 hPa | 0 mm | - | 960 W/m² | - |
| 1787859782 | 36.67° C | 51% | 1007.7 hPa | 0 mm | - | 960 W/m² | - |
| 1787859723 | 36.67° C | 52% | 1007.7 hPa | 0 mm | - | 962 W/m² | - |
* Rain latest hour (hover to see other rain measurements)
** Current wind speed in m/s (hover to see current wind gust speed)